| time (UTC) | temp F | wind direction | speed knots | gust knots | rain 1hr in | rain 24hr in | rain mn in | humidity % | barometer mb |
| 20260510074543 | 72 | 221 | 13.9 | 16.5 | 0.00 | 0.00 | 0.00 | 24 | 995.4 |
| 20260510073046 | 72 | 217 | 14.8 | 17.4 | 0.00 | 0.00 | 0.00 | 24 | 995.5 |
| 20260510071548 | 73 | 211 | 13.0 | 15.6 | 0.00 | 0.00 | 0.00 | 23 | 995.5 |
| 20260510070035 | 74 | 207 | 13.9 | 16.5 | 0.00 | 0.00 | 0.00 | 22 | 995.7 |
| 20260510064533 | 75 | 205 | 13.0 | 15.6 | 0.00 | 0.00 | 0.00 | 22 | 995.6 |
| 20260510063033 | 75 | 208 | 13.0 | 17.4 | 0.00 | 0.00 | 0.00 | 22 | 995.9 |
| 20260510061533 | 75 | 192 | 12.2 | 14.8 | 0.00 | 0.00 | 0.00 | 22 | 995.9 |
| 20260510060030 | 75 | 192 | 12.2 | 15.6 | 0.00 | 0.00 | 0.00 | 22 | 996.0 |
| 20260510054532 | 77 | 192 | 13.9 | 19.1 | 0.00 | 0.00 | 0.00 | 21 | 996.1 |
| 20260510053048 | 77 | 175 | 14.8 | 19.1 | 0.00 | 0.00 | 0.00 | 20 | 996.0 |
| 20260510051529 | 78 | 178 | 17.4 | 21.7 | 0.00 | 0.00 | 0.00 | 19 | 996.0 |
| 20260510050028 | 79 | 175 | 17.4 | 21.7 | 0.00 | 0.00 | 0.00 | 19 | 996.2 |
| 20260510044528 | 79 | 167 | 18.2 | 22.6 | 0.00 | 0.00 | 0.00 | 18 | 996.2 |
| 20260510043039 | 80 | 180 | 18.2 | 22.6 | 0.00 | 0.00 | 0.00 | 17 | 996.2 |
| 20260510041529 | 82 | 167 | 17.4 | 23.5 | 0.00 | 0.00 | 0.00 | 15 | 996.2 |
| 20260510040040 | 82 | 170 | 17.4 | 20.9 | 0.00 | 0.00 | 0.00 | 14 | 996.2 |
| 20260510034534 | 83 | 186 | 15.6 | 19.1 | 0.00 | 0.00 | 0.00 | 14 | 996.1 |
| 20260510033033 | 84 | 170 | 17.4 | 19.1 | 0.00 | 0.00 | 0.00 | 13 | 995.9 |
| 20260510031534 | 84 | 167 | 16.5 | 19.1 | 0.00 | 0.00 | 0.00 | 13 | 995.8 |
| 20260510030018 | 85 | 171 | 14.8 | 20.0 | 0.00 | 0.00 | 0.00 | 13 | 995.7 |
| 20260510024518 | 85 | 163 | 14.8 | 17.4 | 0.00 | 0.00 | 0.00 | 13 | 995.6 |
| 20260510023016 | 86 | 169 | 11.3 | 16.5 | 0.00 | 0.00 | 0.00 | 12 | 995.3 |
| 20260510021531 | 87 | 154 | 12.2 | 14.8 | 0.00 | 0.00 | 0.00 | 11 | 995.3 |
| 20260510020016 | 87 | 153 | 11.3 | 14.8 | 0.00 | 0.00 | 0.00 | 12 | 995.1 |
| 20260510014521 | 89 | 159 | 11.3 | 14.8 | 0.00 | 0.00 | 0.00 | 10 | 995.0 |
| 20260510013024 | 89 | 151 | 12.2 | 15.6 | 0.00 | 0.00 | 0.00 | 10 | 994.9 |
| 20260510011522 | 90 | 144 | 14.8 | 17.4 | 0.00 | 0.00 | 0.00 | 10 | 994.7 |
| 20260510010019 | 91 | 132 | 10.4 | 16.5 | 0.00 | 0.00 | 0.00 | 9 | 994.7 |
| 20260510004526 | 93 | 203 | 6.1 | 13.9 | 0.00 | 0.00 | 0.00 | 8 | 994.8 |
| 20260510003026 | 93 | 187 | 7.0 | 13.9 | 0.00 | 0.00 | 0.00 | 8 | 994.8 |
| 20260510001522 | 93 | 193 | 4.3 | 17.4 | 0.00 | 0.00 | 0.00 | 8 | 994.8 |
| 20260510000028 | 93 | 177 | 9.6 | 13.9 | 0.00 | 0.00 | 0.00 | 8 | 994.9 |
| 20260509234519 | 93 | 173 | 8.7 | 18.2 | 0.00 | 0.00 | 0.00 | 8 | 994.9 |
| 20260509233016 | 93 | 198 | 8.7 | 15.6 | 0.00 | 0.00 | 0.00 | 8 | 995.1 |
| 20260509231515 | 93 | 243 | 7.8 | 13.9 | 0.00 | 0.00 | 0.00 | 8 | 995.2 |
| 20260509230015 | 93 | 221 | 7.0 | 12.2 | 0.00 | 0.00 | 0.00 | 8 | 995.3 |
| 20260509224512 | 93 | 210 | 6.1 | 13.0 | 0.00 | 0.00 | 0.00 | 8 | 995.5 |
| 20260509223016 | 93 | 213 | 9.6 | 20.0 | 0.00 | 0.00 | 0.00 | 8 | 995.6 |
| 20260509221515 | 92 | 301 | 2.6 | 13.0 | 0.00 | 0.00 | 0.00 | 8 | 995.8 |
| 20260509220017 | 92 | 219 | 7.8 | 13.9 | 0.00 | 0.00 | 0.00 | 8 | 995.9 |
| 20260509214508 | 92 | 208 | 12.2 | 22.6 | 0.00 | 0.00 | 0.00 | 9 | 996.1 |
| 20260509213051 | 92 | 170 | 5.2 | 13.9 | 0.00 | 0.00 | 0.00 | 9 | 996.3 |
| 20260509211549 | 92 | 103 | 5.2 | 15.6 | 0.00 | 0.00 | 0.00 | 9 | 996.6 |
| 20260509210049 | 93 | 171 | 7.8 | 9.6 | 0.00 | 0.00 | 0.00 | 9 | 996.9 |
| 20260509204546 | 92 | 232 | 4.3 | 8.7 | 0.00 | 0.00 | 0.00 | 9 | 997.3 |
| 20260509203100 | 91 | 221 | 6.1 | 15.6 | 0.00 | 0.00 | 0.00 | 10 | 997.6 |
| 20260509201548 | 91 | 211 | 2.6 | 10.4 | 0.00 | 0.00 | 0.00 | 11 | 997.9 |
| 20260509200047 | 90 | 226 | 8.7 | 18.2 | 0.00 | 0.00 | 0.00 | 12 | 998.1 |
| 20260509194548 | 91 | 205 | 1.7 | 10.4 | 0.00 | 0.00 | 0.00 | 11 | 998.1 |
| 20260509193040 | 90 | 230 | 10.4 | 17.4 | 0.00 | 0.00 | 0.00 | 11 | 998.4 |
| 20260509191556 | 90 | 225 | 8.7 | 15.6 | 0.00 | 0.00 | 0.00 | 12 | 998.6 |
| 20260509190035 | 89 | 142 | 1.7 | 12.2 | 0.00 | 0.00 | 0.00 | 13 | 998.7 |
| 20260509184544 | 89 | 265 | 7.0 | 19.1 | 0.00 | 0.00 | 0.00 | 12 | 999.1 |
| 20260509183052 | 89 | 228 | 13.0 | 20.9 | 0.00 | 0.00 | 0.00 | 14 | 999.3 |
| 20260509181542 | 88 | 207 | 13.0 | 18.2 | 0.00 | 0.00 | 0.00 | 14 | 999.6 |
| 20260509180041 | 87 | 178 | 10.4 | 15.6 | 0.00 | 0.00 | 0.00 | 16 | 999.7 |
| 20260509174558 | 86 | 219 | 13.9 | 18.2 | 0.00 | 0.00 | 0.00 | 17 | 999.9 |
| 20260509173019 | 86 | 141 | 9.6 | 22.6 | 0.00 | 0.00 | 0.00 | 18 | 1000.1 |
| 20260509171517 | 85 | 182 | 13.9 | 18.2 | 0.00 | 0.00 | 0.00 | 19 | 1000.3 |
| 20260509170022 | 84 | 175 | 9.6 | 14.8 | 0.00 | 0.00 | 0.00 | 20 | 1000.5 |
| 20260509164514 | 83 | 169 | 10.4 | 16.5 | 0.00 | 0.00 | 0.00 | 20 | 1000.6 |
| 20260509163032 | 82 | 168 | 12.2 | 16.5 | 0.00 | 0.00 | 0.00 | 21 | 1000.6 |
| 20260509161518 | 81 | 185 | 13.9 | 17.4 | 0.00 | 0.00 | 0.00 | 22 | 1000.6 |
| 20260509160015 | 80 | 169 | 11.3 | 15.6 | 0.00 | 0.00 | 0.00 | 24 | 1000.7 |
| 20260509154511 | 78 | 185 | 10.4 | 15.6 | 0.00 | 0.00 | 0.00 | 26 | 1000.9 |
| 20260509153022 | 76 | 186 | 10.4 | 13.0 | 0.00 | 0.00 | 0.00 | 27 | 1001.0 |
| 20260509151514 | 75 | 160 | 12.2 | 15.6 | 0.00 | 0.00 | 0.00 | 28 | 1001.2 |
| 20260509150012 | 74 | 166 | 13.0 | 16.5 | 0.00 | 0.00 | 0.00 | 29 | 1001.4 |
| 20260509144507 | 72 | 192 | 8.7 | 10.4 | 0.00 | 0.00 | 0.00 | 31 | 1001.4 |
| 20260509143011 | 70 | 195 | 9.6 | 12.2 | 0.00 | 0.00 | 0.00 | 33 | 1001.6 |
| 20260509141511 | 68 | 198 | 8.7 | 11.3 | 0.00 | 0.00 | 0.00 | 36 | 1001.5 |
| 20260509140012 | 67 | 213 | 10.4 | 12.2 | 0.00 | 0.00 | 0.00 | 36 | 1001.4 |
| 20260509134508 | 67 | 207 | 9.6 | 14.8 | 0.00 | 0.00 | 0.00 | 36 | 1001.3 |
| 20260509133044 | 66 | 195 | 10.4 | 13.9 | 0.00 | 0.00 | 0.00 | 36 | 1001.2 |
| 20260509131543 | 65 | 191 | 7.8 | 9.6 | 0.00 | 0.00 | 0.00 | 39 | 1001.1 |
| 20260509130046 | 64 | 171 | 8.7 | 10.4 | 0.00 | 0.00 | 0.00 | 41 | 1001.0 |
| 20260509124548 | 63 | 159 | 9.6 | 12.2 | 0.00 | 0.00 | 0.00 | 42 | 1001.0 |
| 20260509123006 | 62 | 173 | 7.8 | 11.3 | 0.00 | 0.00 | 0.00 | 43 | 1000.6 |
| 20260509121509 | 62 | 196 | 8.7 | 12.2 | 0.00 | 0.00 | 0.00 | 45 | 1000.3 |
| 20260509120002 | 62 | 165 | 8.7 | 9.6 | 0.00 | 0.00 | 0.00 | 45 | 1000.3 |
| 20260509114603 | 64 | 156 | 6.1 | 11.3 | 0.00 | 0.00 | 0.00 | 43 | 1000.3 |
| 20260509113058 | 65 | 146 | 7.8 | 11.3 | 0.00 | 0.00 | 0.00 | 42 | 1000.2 |
| 20260509111553 | 65 | 140 | 8.7 | 10.4 | 0.00 | 0.00 | 0.00 | 42 | 1000.1 |
| 20260509104518 | 64 | 116 | 5.2 | 7.8 | 0.00 | 0.00 | 0.00 | 44 | 1000.0 |
| 20260509103014 | 65 | 139 | 6.1 | 9.6 | 0.00 | 0.00 | 0.00 | 43 | 999.8 |
| 20260509101521 | 66 | 136 | 7.8 | 9.6 | 0.00 | 0.00 | 0.00 | 40 | 999.8 |
| 20260509094556 | 68 | 149 | 7.0 | 13.0 | 0.00 | 0.00 | 0.00 | 37 | 999.8 |
| 20260509093043 | 67 | 249 | 10.4 | 13.0 | 0.00 | 0.00 | 0.00 | 39 | 999.2 |
| 20260509091540 | 68 | 226 | 7.8 | 12.2 | 0.00 | 0.00 | 0.00 | 38 | 998.9 |
| 20260509084526 | 70 | 259 | 11.3 | 13.9 | 0.00 | 0.00 | 0.00 | 35 | 999.0 |
| 20260509083034 | 69 | 261 | 9.6 | 12.2 | 0.00 | 0.00 | 0.00 | 35 | 999.0 |
| 20260509081523 | 69 | 258 | 11.3 | 13.9 | 0.00 | 0.00 | 0.00 | 35 | 999.1 |